Flag for South Africa Weather past 2 weeks in Pretoria, South Africa

Now
70 °F

Mild.


Feels Like: 70 °F
Forecast: 62 / 80 °F
Wind: 5 mph from Northwest

Location: Waterkloof Lmb

Current Time: Dec 18, 2014 at 4:51:26 PM

Latest Report: Dec 18, 2014 at 3:00 PM


Visibility: N/A

Pressure: 30.07 "Hg

Humidity: 60%

Dew point: 55 °F

Location of PretoriaLocation

Historic Weather in Pretoria — Graph

°F

Pretoria temperature yesterday

Maximum temperature yesterday: 72 °F (at 3:00 PM)
Minimum temperature yesterday: 59 °F (at 2:00 AM)
Average temperature yesterday: 65 °F

Past Weeks' High & Low Weather Summary

 TemperatureHumidityPressure
High90 °F (Dec 5, 12:00 PM)100% (Dec 10, 12:00 AM)30.24 "Hg (Dec 10, 12:00 AM)
Low59 °F (Dec 17, 2:00 AM)20% (Dec 5, 1:00 PM)30.01 "Hg (Dec 15, 3:00 PM)
Average71 °F73%30.14 "Hg
* Reported Dec 3 3:00 PM — Dec 18 3:00 PM, Pretoria, Weather by CustomWeather, © 2014

Note: Actual official high and low records may vary slightly from our data, if they occured in-between our weather recording intervals... More about our weather records

Advertising

Pretoria weather history for previous 24 hours

 ConditionsComfort  
Time TempWeatherWind HumidityBarometerVisibility
3:00 PM
Dec 18
70 °FMild.5 mph60%30.07 "HgN/A
2:00 PM73 °FMild.5 mph69%30.09 "HgN/A
1:00 PM73 °FMild.6 mph65%30.09 "HgN/A
12:00 PM72 °FMild.7 mph69%30.15 "HgN/A
8:00 AM64 °FMild.5 mph94%30.18 "HgN/A
7:00 AM64 °FMild.6 mph94%30.15 "HgN/A
6:00 AM63 °FMild.3 mph100%30.15 "HgN/A
5:00 AM63 °FMild.2 mph100%30.12 "HgN/A
4:00 AM63 °FMild.2 mph100%30.12 "HgN/A
3:00 AM63 °FMild.3 mph100%30.15 "HgN/A
2:00 AM63 °FMild.3 mph100%30.15 "HgN/A
1:00 AM64 °FMild.3 mph88%30.15 "HgN/A
12:00 AM64 °FMild.6 mph88%30.18 "HgN/A
11:00 PM
Dec 17
64 °FMild.5 mph88%30.21 "HgN/A
10:00 PM64 °FMild.5 mph94%30.21 "HgN/A
9:00 PM64 °FMild.7 mph94%30.18 "HgN/A
8:00 PM64 °FMild.5 mph94%30.15 "HgN/A
7:00 PM66 °FMild.6 mph88%30.12 "HgN/A
6:00 PM66 °FMild.8 mph88%30.12 "HgN/A
5:00 PM70 °FMild.8 mph73%30.12 "HgN/A
4:00 PM70 °FMild.6 mph73%30.12 "HgN/A
Weather by CustomWeather, © 2014

See weather overviewHow to use our weather pages